This is the latest recevied weather packets stored in our database for station/object OE-11049. If no packets are shown the sender has not sent any weather packets the latest 10 day(s).
| Time | Temp. | Humidity | Pressure | Rain* | Wind** | Luminosity | Snow |
|---|---|---|---|---|---|---|---|
| 1787726728 | 15.56° C | 92% | 1017.4 hPa | 0 mm | - | 181 W/m² | - |
| 1787726117 | 15.56° C | 93% | 1017.4 hPa | 0 mm | - | 99 W/m² | - |
| 1787725517 | 15° C | 93% | 1017.4 hPa | 0 mm | - | 111 W/m² | - |
| 1787724689 | 15° C | 93% | 1017.4 hPa | 0 mm | - | 117 W/m² | - |
| 1787724317 | 14.44° C | 94% | 1017.5 hPa | 0 mm | - | 94 W/m² | - |
| 1787723716 | 14.44° C | 94% | 1017.4 hPa | 0 mm | - | 88 W/m² | - |
| 1787722889 | 14.44° C | 94% | 1017.4 hPa | 0 mm | - | 64 W/m² | - |
| 1787722517 | 13.89° C | 94% | 1017.4 hPa | 0 mm | - | 58 W/m² | - |
| 1787721917 | 13.89° C | 94% | 1017.4 hPa | 0 mm | - | 64 W/m² | - |
| 1787721089 | 13.89° C | 95% | 1017.2 hPa | 0 mm | - | 58 W/m² | - |
| 1787720717 | 13.33° C | 95% | 1017.3 hPa | 0 mm | - | 29 W/m² | - |
| 1787720117 | 13.33° C | 95% | 1017.3 hPa | 0 mm | - | 12 W/m² | - |
| 1787719290 | 13.33° C | 95% | 1017.3 hPa | 0 mm | - | 6 W/m² | - |
| 1787718917 | 13.33° C | 95% | 1017.1 hPa | 0 mm | - | 0 W/m² | - |
| 1787718316 | 13.33° C | 95% | 1017.1 hPa | 0 mm | - | 0 W/m² | - |
| 1787717489 | 13.33° C | 95% | 1017.1 hPa | 0 mm | - | 0 W/m² | - |
| 1787717117 | 13.33° C | 96% | 1017 hPa | 0 mm | - | 0 W/m² | - |
| 1787716516 | 13.33° C | 96% | 1017 hPa | 0 mm | - | 0 W/m² | - |
| 1787715917 | 13.33° C | 96% | 1016.9 hPa | 0 mm | - | 0 W/m² | - |
| 1787715316 | 12.78° C | 96% | 1017 hPa | 0 mm | - | 0 W/m² | - |
| 1787714717 | 12.78° C | 96% | 1017 hPa | 0 mm | - | 0 W/m² | - |
| 1787713889 | 12.78° C | 95% | 1017.1 hPa | 0 mm | - | 0 W/m² | - |
| 1787713517 | 13.33° C | 96% | 1017 hPa | 0 mm | - | 0 W/m² | - |
| 1787712918 | 13.33° C | 95% | 1017.2 hPa | 0 mm | - | 0 W/m² | - |
| 1787712089 | 12.78° C | 95% | 1017.1 hPa | 0 mm | - | 0 W/m² | - |
* Rain latest hour (hover to see other rain measurements)
** Current wind speed in m/s (hover to see current wind gust speed)